Voltar ao catálogo

YINHE 2-04

AtivoComunicaçõesLEO
NORAD 51949·PAYLOAD·🇨🇳 China
Este nome de satélite ainda não foi confirmado por fontes oficiais.

Lançado Mar 5, 2022 de Xichang Satellite Launch Center

Loading…

Próximas Passagens (próximas 24 horas)

TLE

AtualizadoSource: Space-Track

Época: Sep 14, 2026, 23:33 UTC

1 51949U 22023D   26257.98152966  .00013805  00000-0  54056-3 0  9995
2 51949  63.4475 326.5128 0135074 352.8472   7.0708 15.17970904251347

Acompanhe YINHE 2-04 em tempo real com AllMySat

Download on the App Store